Terminal Aerodrome Forecast
Issued by NWS Boston, MA

Home | Current Version | Previous Version | Text Only | Print | Product List | Glossary On
Versions: 1 2 3 4 5 6 7 8 9 10 11 12 13 14 15 16 17 18 19 20 21 22 23 24 25 26 27 28 29 30 31 32 33 34 35 36 37 38 39 40 41
147
FTUS41 KBOX 140933 AAA
TAFBOS
TAF AMD
KBOS 140933Z 1410/1512 30018G29KT P6SM FEW040
     FM141500 31014G24KT P6SM SKC
     FM150200 28009KT P6SM SKC
     FM150900 27005KT P6SM SKC=

USA.gov is the U.S. government's official web portal to all federal, state and local government web resources and services.